Simultaneous Nadir Overpasses (SNOs) Predictions

Prediction of SNOs between METOP-A and TERRA Satellite Orbit:

Table of predicted SNOs for the next 14.0 days since TLE Epoch: 10/26/2013
Index Date (METOP-A) Time (METOP-A) Lat,Lon (METOP-A) SZA (METOP-A ) Date (TERRA) Time (TERRA) Lat,Lon (TERRA) SZA (TERRA ) Distance(km) Time Diff (sec)
1 10/28/2013 14:22:59 -81.31,-168.75 82.28 10/28/2013 14:24:03 -81.31,-168.63 82.24 1.98 64
2 10/28/2013 15:13:38 81.32, -0.75 97.82 10/28/2013 15:13:29 81.31, -0.87 97.80 2.17 9
3 10/31/2013 09:57:19 -81.31,-101.97 81.32 10/31/2013 09:58:25 -81.32,-101.99 81.28 0.86 66
4 10/31/2013 10:47:59 81.32, 65.60 98.73 10/31/2013 10:47:51 81.33, 65.75 98.75 2.71 8
5 11/03/2013 05:31:42 -81.31, -36.02 80.49 11/03/2013 05:32:53 -81.31, -35.85 80.43 2.86 71
6 11
